﻿METLOCID,DATE_TIME,AVG_RH,STDDEV_RH,MIN_RH,MAX_RH,N_RH,N_COMMENTS
BOYM,11/24/93,65.35034483,1.699018257,61.11,67.36,58,0
BOYM,11/25/93,56.40909722,10.74874128,32.95,75.87,144,0
BOYM,11/26/93,66.61166667,11.98983468,44.3,85.83,144,0
BOYM,11/27/93,78.349375,3.244322037,73.22,84.09,144,0
BOYM,11/28/93,70.58409722,7.96616599,52.65,81.32,144,0
BOYM,11/29/93,58.25326389,11.36141383,43.07,79.02,144,0
BOYM,11/30/93,52.71055556,5.671540753,45.16,65.2,144,0
BOYM,12/1/93,53.82597222,4.099307688,43.56,64.35,144,0
BOYM,12/2/93,50.62270833,14.17213726,25.1,71.72,144,0
BOYM,12/3/93,69.98194444,5.955847955,60.35,81.99,144,0
BOYM,12/4/93,68.78208333,2.279378788,65.3,73.72,144,0
BOYM,12/5/93,64.74923611,4.976511694,58.33,73.97,144,0
BOYM,12/6/93,55.54395833,4.526541343,48.23,66.62,144,0
BOYM,12/7/93,54.65375,2.355890067,50.67,61.77,144,0
BOYM,12/8/93,61.42173611,1.909078909,58.16,65.59,144,0
BOYM,12/9/93,50.57131944,8.998666509,27,66.08,144,0
BOYM,12/10/93,53.64645833,2.4522239,49.16,58.84,144,0
BOYM,12/11/93,52.258125,2.719653405,46.25,58.17,144,0
BOYM,12/12/93,63.10513889,12.65111305,48.05,83.85,144,0
BOYM,12/13/93,66.90083333,6.524065456,56.86,78.55,144,0
BOYM,12/14/93,50.51368056,11.6222906,30.02,70.53,144,0
BOYM,12/15/93,48.45354167,15.02038272,24.4,73.78,144,0
BOYM,12/16/93,26.26708333,1.98658222,23.7,30.67,144,0
BOYM,12/17/93,27.766875,3.353231292,22.5,34.5,144,0
BOYM,12/18/93,81.71541667,23.11436216,28.1,99.99,144,26
BOYM,12/19/93,59.03097222,8.659452923,47.77,82.63,144,0
BOYM,12/20/93,76.07930556,8.827033465,54.1,84.67,144,0
BOYM,12/21/93,90.16145833,3.814139313,81.84,96.03,144,0
BOYM,12/22/93,81.21201389,10.15923842,62.35,94.3,144,0
BOYM,12/23/93,77.58034722,4.290826027,68.95,89.44,144,0
BOYM,12/24/93,67.80701389,6.689879119,54.88,79.14,144,0
BOYM,12/25/93,64.55576389,6.832854668,54.34,76.83,144,0
BOYM,12/26/93,36.96604167,7.997599659,22.8,59.64,144,0
BOYM,12/27/93,45.49597222,7.685278391,30.53,66.27,144,0
BOYM,12/28/93,66.88388889,7.658186635,52.31,75.14,144,0
BOYM,12/29/93,56.33736111,11.78231577,36.85,73.87,144,0
BOYM,12/30/93,29.04701389,5.966630995,21,49.95,144,0
BOYM,12/31/93,35.58854167,4.602318961,27.1,49.6,144,0
BOYM,1/1/94,33.68388889,4.328495291,26,47.45,144,0
BOYM,1/2/94,36.29652778,5.121085074,23.7,43.6,144,0
BOYM,1/3/94,43.78111111,3.363630055,34.2,47.7,144,0
BOYM,1/4/94,45.05506944,3.489459452,37.7,54.41,144,0
BOYM,1/5/94,61.58868056,10.06165116,48.4,82.54,144,0
BOYM,1/6/94,65.82333333,10.09238611,49.1,82.88,144,0
BOYM,1/7/94,52.65826389,10.11963122,38.5,72.39,144,0
BOYM,1/8/94,51.97180556,7.370104956,41.1,67.67,144,0
BOYM,1/9/94,44.94618056,6.723705792,28.3,61.07,144,0
BOYM,1/10/94,42.37923611,5.138612787,22.2,51.7,144,0
BOYM,1/11/94,49.28194444,4.842181396,38.7,63.25,144,0
BOYM,1/12/94,34.88888889,6.945784502,23.6,50.7,90,0
BOYM,1/13/94,45.46875,9.182185295,35.1,60.57,8,0
BOYM,1/14/94,39.02,4.600956422,32.5,45.1,8,0
BOYM,1/15/94,41.4375,2.783593515,38,46.1,8,0
BOYM,1/16/94,71.67,8.741665418,51.9,80.53,8,0
BOYM,1/17/94,74.03875,6.308446577,67.07,83.14,8,0
BOYM,1/18/94,54.79,11.26297601,41.4,70.12,8,0
BOYM,1/19/94,64.86625,14.15652393,51.34,87.7,8,0
BOYM,1/20/94,49.2625,4.877056343,44.8,59.63,8,0
BOYM,1/21/94,52.40125,6.606259883,41.1,62.61,8,0
BOYM,1/22/94,52.78,2.034123188,50.05,55.78,8,0
BOYM,1/23/94,47.4425,11.93281879,36.64,74.26,8,0
BOYM,1/24/94,63.68875,11.06989668,47,75.74,8,0
BOYM,1/25/94,62.03375,5.391363298,53.97,68.67,8,0
BOYM,1/26/94,63.82375,8.966399082,53.52,75.26,8,0
BOYM,1/27/94,56.84375,8.994393393,46.5,66.08,8,0
BOYM,1/28/94,63.97125,3.650453739,58.13,68.61,8,0
BOYM,1/29/94,75.5825,5.885402644,65.1,80.01,8,0
BOYM,1/30/94,72.15625,6.214264553,63.24,79.98,8,0
BOYM,1/31/94,56.75625,13.04281624,40.73,71.72,8,0
BOYM,2/1/94,66.77625,11.27889931,49.35,77.88,8,0
BOYM,2/2/94,47.55,3.242684073,43.65,52.9,8,0
BOYM,2/3/94,75.77125,5.819691787,63.11,82.28,8,0
BOYM,2/4/94,69.72375,5.977825542,64.24,78.09,8,0
BOYM,2/5/94,75.62375,12.2588463,57.97,92.37,8,0
BOYM,2/6/94,87.04125,5.996733486,76.95,93.4,8,0
BOYM,2/7/94,75.15,18.15458541,53.57,95.83,8,0
BOYM,2/8/94,56.8375,10.4394523,48.38,78.03,8,0
BOYM,2/9/94,62.75375,16.35034638,45.44,92.13,8,0
BOYM,2/10/94,86.1525,4.036142961,80.2,90.67,8,0
BOYM,2/11/94,81.4225,8.73359319,70.24,93.01,8,0
BOYM,2/12/94,84.63125,3.621430015,79.37,89.93,8,0
BOYM,2/13/94,57.48125,20.2793952,33.51,87.64,8,0
BOYM,2/14/94,46.04125,11.64134926,35.16,68.79,8,0
BOYM,2/15/94,62.8425,8.540866048,53.54,78.82,8,0
BOYM,2/16/94,45.4025,10.93967452,32.42,59.84,8,0
BOYM,2/17/94,44.14375,7.097760084,34.42,56.46,8,0
BOYM,2/18/94,47.805,3.348321541,43.23,54.04,8,0
BOYM,2/19/94,82.355,5.95901478,70.25,88.64,8,0
BOYM,2/20/94,80.01125,10.20292876,66.23,90.62,8,0
BOYM,2/21/94,74.34,15.47112795,45.27,87.99,8,0
BOYM,2/22/94,41.29875,6.783303952,33.61,52.16,8,0
BOYM,2/23/94,53.43875,11.98807555,41.97,71.73,8,0
BOYM,2/24/94,55.56875,10.48049677,44.68,74.21,8,0
BOYM,2/25/94,64.8325,4.635107488,58.18,70.43,8,0
BOYM,2/26/94,66.53375,3.800657603,59.79,70.97,8,0
BOYM,2/27/94,71.4725,5.990687416,64.76,80.29,8,0
BOYM,2/28/94,59.98375,15.15238495,38.9,74.82,8,0
BOYM,3/1/94,64.3525,6.490845752,55.45,73.01,8,0
BOYM,3/2/94,65.1425,5.67529672,55.87,72.37,8,0
BOYM,3/3/94,68.3675,2.856940171,62.27,71.11,8,0
BOYM,3/4/94,71.66375,4.14603748,66.17,77.28,8,0
BOYM,3/5/94,77.9175,4.29853048,71.75,83.73,8,0
BOYM,3/6/94,77.2725,4.5943529,72.06,82.52,8,0
BOYM,3/7/94,71.91875,4.923400212,66.09,77.43,8,0
BOYM,3/8/94,73.78875,3.409379657,67.12,76.67,8,0
BOYM,3/9/94,83.0975,3.970806863,75.76,88.68,8,0
BOYM,3/10/94,65.85625,16.04114704,49.68,85.8,8,0
BOYM,3/11/94,86.8475,4.455082972,79.92,91.7,8,0
BOYM,3/12/94,71.02875,10.86309537,52.29,89.68,8,0
BOYM,3/13/94,86.41,1.86878876,83.42,89.23,8,0
BOYM,3/14/94,86.82375,5.093098797,76.94,91.21,8,0
BOYM,3/15/94,73.91125,17.85415633,39.75,90.87,8,0
BOYM,3/16/94,58.11,12.46577944,42.56,77.1,8,0
BOYM,3/17/94,79.37125,2.488415661,74.7,82.48,8,0
BOYM,3/18/94,46.3125,2.967744454,41.95,51.2,8,0
BOYM,3/19/94,56.91125,13.14242034,46.32,79.84,8,0
BOYM,3/20/94,84.04125,1.685301478,81.65,85.81,8,0
BOYM,3/21/94,83.76875,1.868799749,81.7,86.12,8,0
BOYM,3/22/94,81.6825,2.247759202,77.61,83.96,8,0
BOYM,3/23/94,83.51,1.24184195,81.24,85.21,8,0
BOYM,3/24/94,83.13,1.586955756,80.85,84.95,8,0
BOYM,3/25/94,71.0925,12.53181523,49.75,81.85,8,0
BOYM,3/26/94,80.22375,8.864465075,59.51,86.65,8,0
BOYM,3/27/94,63.0025,16.81722905,40.91,79.24,8,0
BOYM,3/28/94,43.33875,9.796558342,36.59,66.86,8,0
BOYM,3/29/94,57.2125,17.0502256,39.29,76.58,8,0
BOYM,3/30/94,72.14875,9.132240278,52.32,80.45,8,0
BOYM,3/31/94,77.74125,1.581793173,75.98,79.66,8,0
BOYM,4/1/94,47.195,20.56201421,31.75,75.3,8,0
BOYM,4/2/94,47.0625,11.45028353,36.02,64.51,8,0
BOYM,4/3/94,79.57875,4.118527606,70.73,82.66,8,0
BOYM,4/4/94,57.33625,26.67586814,29.12,83.23,8,0
BOYM,4/5/94,37.07375,8.444901991,29.98,53.58,8,0
BOYM,4/6/94,69.7625,8.02925677,54.52,76.48,8,0
BOYM,4/7/94,56.7825,18.88567087,37.4,78.73,8,0
BOYM,4/8/94,61.78375,11.85622192,45.58,85.28,8,0
BOYM,4/9/94,95.77125,2.425727799,90.56,98.08,8,0
BOYM,4/10/94,75.58125,25.43359277,43.88,98.43,8,0
BOYM,4/11/94,50.4425,6.480973802,43.18,61.15,8,0
BOYM,4/12/94,75.9225,11.00270064,58.5,85.41,8,0
BOYM,4/13/94,85.75625,2.93034341,81.14,89.02,8,0
BOYM,4/14/94,89.67,0.782943165,88.84,91.32,8,0
BOYM,4/15/94,91.58125,0.825823182,90.51,92.5,8,0
BOYM,4/16/94,86.80375,0.917386622,84.81,87.65,8,0
BOYM,4/17/94,63.21875,24.10590825,40.13,87.8,8,0
BOYM,4/18/94,55.35,17.98578486,35.01,75.46,8,0
BOYM,4/19/94,73.09125,16.90818351,35.94,86.21,8,0
BOYM,4/20/94,41.4675,15.10068849,31.73,69.01,8,0
BOYM,4/21/94,73.44,4.794651782,64.88,78.83,8,0
BOYM,4/22/94,83.625,1.783912234,80.33,85.21,8,0
BOYM,4/23/94,86.385,0.838553176,85.29,87.36,8,0
BOYM,4/24/94,75.395,19.71452981,29.26,85.83,8,0
BOYM,4/25/94,69.08875,27.36651783,28.2,92.38,8,0
BOYM,4/26/94,66.01125,26.20930557,37.87,91.3,8,0
BOYM,4/27/94,63.53125,13.79405922,38.1,78.02,8,0
BOYM,4/28/94,81.8625,1.734340138,79.14,83.86,8,0
BOYM,4/29/94,83.43,1.956644358,80.7,85.98,8,0
BOYM,4/30/94,79.5075,2.496973883,76.73,83.08,8,0
BOYM,5/1/94,84.07875,0.964223411,82.06,84.87,8,0
BOYM,5/2/94,61.7425,10.51558401,49.5,77.37,8,0
BOYM,5/3/94,73.41875,6.102143505,62.26,80.21,8,0
BOYM,5/4/94,71.71625,11.59347839,58.56,85.27,8,0
BOYM,5/5/94,81.38,3.302752099,75.79,85.49,8,0
BOYM,5/6/94,53.39125,11.51001854,40.03,70.35,8,0
BOYM,5/7/94,82.80625,6.252597032,67.88,86.7,8,0
BOYM,5/8/94,89.7225,1.429233061,87.09,91.47,8,0
BOYM,5/9/94,79.9975,15.91549088,44,88.95,8,0
BOYM,5/10/94,70.84625,19.55056224,39.32,85.99,8,0
BOYM,5/11/94,85.555,0.219414806,85.2,85.88,8,0
BOYM,5/12/94,86.9175,0.494909804,86.18,87.62,8,0
BOYM,5/13/94,87.50875,0.091407643,87.38,87.66,8,0
BOYM,5/14/94,86.8875,0.219853848,86.53,87.17,8,0
BOYM,5/15/94,85.875,0.436184758,85.3,86.37,8,0
BOYM,5/16/94,85.59625,0.640601001,84.62,86.54,8,0
BOYM,5/17/94,86.3425,1.108638161,84.65,87.77,8,0
BOYM,5/18/94,83.37625,3.199789893,76.73,86.28,8,0
BOYM,5/19/94,81.755,2.46870122,77.54,83.69,8,0
BOYM,5/20/94,66.23875,16.04199439,46.11,82.76,8,0
BOYM,5/21/94,38.77875,2.023521947,35.97,42.59,8,0
BOYM,5/22/94,39.7525,1.214175205,37.53,41.42,8,0
BOYM,5/23/94,42.98625,13.23763891,32.38,63.11,8,0
BOYM,5/24/94,64.83,2.34966259,60.89,67.67,8,0
BOYM,5/25/94,59.56125,3.075769068,55.59,63.53,8,0
BOYM,5/26/94,38.1825,2.603496276,35.57,42.05,8,0
BOYM,5/27/94,69.33,10.29507511,44.88,76.49,8,0
BOYM,5/28/94,66.2,13.46168213,43.04,76.05,8,0
BOYM,5/29/94,75.825,1.094505759,73.67,76.72,8,0
BOYM,5/30/94,77.005,5.279521082,68.31,82.82,8,0
BOYM,5/31/94,82.69125,4.158689483,72.46,84.61,8,0
BOYM,6/1/94,65.40625,14.13765786,39.64,77.01,8,0
BOYM,6/2/94,80.66375,3.722245626,73.74,84.18,8,0
BOYM,6/3/94,83.04875,0.653811626,82.23,84.24,8,0
BOYM,6/4/94,65.145,16.09871956,40.4,82.34,8,0
BOYM,6/5/94,56.42375,13.00273261,38.45,72.59,8,0
BOYM,6/6/94,39.27625,2.956459937,36.05,45.16,8,0
BOYM,6/7/94,34.17375,2.138096199,31.86,38.98,8,0
BOYM,6/8/94,33.78,0.938037465,32.38,34.87,8,0
BOYM,6/9/94,33.77125,1.59607051,31.17,35.71,8,0
BOYM,6/10/94,36.505,3.868753952,33.59,45.6,8,0
BOYM,6/11/94,55.165,15.63387439,37.37,75.25,8,0
BOYM,6/12/94,58.1075,16.08822529,37.69,73.55,8,0
BOYM,6/13/94,76.2975,4.179411271,71.26,82.21,8,0
BOYM,6/14/94,83.2075,0.294703241,82.68,83.54,8,0
BOYM,6/15/94,80.39625,3.686023554,71.45,82.44,8,0
BOYM,6/16/94,69.89,6.422089113,56.85,76.55,8,0
BOYM,6/17/94,76.56375,13.65349033,47.04,86.35,8,0
BOYM,6/18/94,62.3075,27.77967281,35.46,93.24,8,0
BOYM,6/19/94,91.9925,1.652839548,90.06,94.33,8,0
BOYM,6/20/94,68.4475,26.55272423,35.7,89.92,8,0
BOYM,6/21/94,50.41875,11.32403063,37.76,70.08,8,0
BOYM,6/22/94,77.685,3.120114467,71.83,80.64,8,0
BOYM,6/23/94,81.47375,0.125235492,81.29,81.62,8,0
BOYM,6/24/94,80.8825,0.204293207,80.63,81.3,8,0
BOYM,6/25/94,66.61875,15.96950794,41.22,80.68,8,0
BOYM,6/26/94,73.045,8.205971693,54.5,80.22,8,0
BOYM,6/27/94,80.17625,0.723936412,79.14,81.12,8,0
BOYM,6/28/94,81.67,1.957301349,78.13,83.62,8,0
BOYM,6/29/94,85.3225,0.926633692,83.54,86.04,8,0
BOYM,6/30/94,85.13375,1.873720039,80.53,86.09,8,0
BOYM,7/1/94,44.60625,9.671356734,35.7,60.14,8,0
BOYM,7/2/94,37.4525,6.395937885,33.04,52.62,8,0
BOYM,7/3/94,78.77625,3.993845041,70.21,82.69,8,0
BOYM,7/4/94,58.01375,8.808875293,44.58,68.44,8,0
BOYM,7/5/94,68.6475,9.264221114,50.3,75.44,8,0
BOYM,7/6/94,80.6575,3.339417186,74.98,83.11,8,0
BOYM,7/7/94,81.71625,0.937594757,80.17,82.51,8,0
BOYM,7/8/94,82.00125,0.326865525,81.49,82.5,8,0
BOYM,7/9/94,83.12375,0.255786602,82.91,83.57,8,0
BOYM,7/10/94,83.105,0.329805137,82.68,83.49,8,0
BOYM,7/11/94,81.24875,0.872966003,80.05,82.48,8,0
BOYM,7/12/94,77.5025,4.889951066,65.62,79.86,8,0
BOYM,7/13/94,53.84375,14.44319507,32.25,67.35,8,0
BOYM,7/14/94,33.785,4.336697229,31.51,44.47,8,0
BOYM,7/15/94,39.9025,2.565071706,35.96,42.7,8,0
BOYM,7/16/94,56.9425,22.88672026,34.88,86.91,8,0
BOYM,7/17/94,44.66375,16.29414087,27.63,68.75,8,0
BOYM,7/18/94,53.2875,22.01661629,29.86,90.75,8,0
BOYM,7/19/94,62.73875,7.272673781,47.37,69.24,8,0
BOYM,7/20/94,76.365,2.648428105,70.75,78.92,8,0
BOYM,7/21/94,79.92125,0.444536275,79.45,80.89,8,0
BOYM,7/22/94,80.13,0.455474635,79.23,80.64,8,0
BOYM,7/23/94,79.43875,0.268989511,78.96,79.74,8,0
BOYM,7/24/94,78.84625,0.622321403,77.81,79.54,8,0
BOYM,7/25/94,80.13875,0.37126954,79.45,80.59,8,0
BOYM,7/26/94,79.0075,0.502017359,78.35,79.77,8,0
BOYM,7/27/94,62.945,21.55756215,28.57,78.09,8,0
BOYM,7/28/94,24.8675,1.098112016,23.66,26.83,8,0
BOYM,7/29/94,30.4825,14.55292779,24.63,66.49,8,0
BOYM,7/30/94,66.3925,6.549586137,54.78,74.15,8,0
BOYM,7/31/94,61.35625,8.905922488,42.86,71.64,8,0
BOYM,8/1/94,47.4675,10.95168448,38.35,63.85,8,0
BOYM,8/2/94,40.6525,1.683565519,39.13,44.24,8,0
BOYM,8/3/94,60.2,17.87401146,37.86,76.12,8,0
BOYM,8/4/94,72,3.195215173,67.21,75,8,0
BOYM,8/5/94,73.6,0.868200109,72.47,74.77,8,0
BOYM,8/6/94,73.4125,0.746855312,72.18,74.36,8,0
BOYM,8/7/94,52.97125,11.51052988,38.55,65.24,8,0
BOYM,8/8/94,46.02875,5.818073902,38.16,56.17,8,0
BOYM,8/9/94,59.715,14.43342153,29.32,72.34,8,0
BOYM,8/10/94,75.855,2.07738847,72.7,77.86,8,0
BOYM,8/11/94,76.49875,0.511759919,75.89,77.35,8,0
BOYM,8/12/94,75.13625,0.571562707,74.27,75.94,8,0
BOYM,8/13/94,74.20625,0.502079604,73.57,75.03,8,0
BOYM,8/14/94,73.39875,0.548515855,72.67,74.23,8,0
BOYM,8/15/94,72.5275,0.216712449,72.31,72.9,8,0
BOYM,8/16/94,73.35,0.303315018,72.95,73.91,8,0
BOYM,8/17/94,73.59125,0.290980485,73.12,73.98,8,0
BOYM,8/18/94,72.4425,0.445541404,71.88,73.07,8,0
BOYM,8/19/94,72.42125,0.451012749,71.76,72.87,8,0
BOYM,8/20/94,72.73,0.07309485,72.62,72.84,8,0
BOYM,8/21/94,71.96625,0.521863077,71.28,72.67,8,0
BOYM,8/22/94,72.27,1.047814051,70.86,73.96,8,0
BOYM,8/23/94,79.13625,1.712683254,76.69,81.56,8,0
BOYM,8/24/94,74.8075,0.617223044,74.13,75.91,8,0
BOYM,8/25/94,63.14625,14.44814564,41.11,77.44,8,0
BOYM,8/26/94,72.115,14.38750649,38.07,80.71,8,0
BOYM,8/27/94,61.5275,15.48843047,38.04,78.89,8,0
BOYM,8/28/94,38.36875,1.115622024,36.26,39.32,8,0
BOYM,8/29/94,35.57625,1.036200994,34.62,37.73,8,0
BOYM,8/30/94,36.08625,3.151221702,34.01,43.35,8,0
BOYM,8/31/94,59.62625,15.54594199,34.77,80.11,8,0
BOYM,9/1/94,45.6475,14.81274524,34.59,70.56,8,0
BOYM,9/2/94,69.57375,10.94080297,45.07,77.61,8,0
BOYM,9/3/94,77.3875,3.854124878,73.48,82.76,8,0
BOYM,9/4/94,82.12125,0.865438576,80.86,83.23,8,0
BOYM,9/5/94,81.06875,0.72046488,79.73,82.03,8,0
BOYM,9/6/94,70.12625,17.21837468,36.32,81.48,8,0
BOYM,9/7/94,38.1225,6.037752065,33.07,48.34,8,0
BOYM,9/8/94,28.7575,0.984374348,27.16,30.14,8,0
BOYM,9/9/94,59.76875,10.32190381,37.74,70.98,8,0
BOYM,9/10/94,74.01125,2.791100333,69.95,76.7,8,0
BOYM,9/11/94,78.78,1.854068885,74.67,80.69,8,0
BOYM,9/12/94,80.365,0.304537119,79.93,80.81,8,0
BOYM,9/13/94,78.8125,0.87108717,77.95,79.84,8,0
BOYM,9/14/94,48.14625,14.31059941,32.56,77.72,8,0
BOYM,9/15/94,44.36375,7.049350401,38.4,56.81,8,0
BOYM,9/16/94,40.255,1.874688546,38.01,43.41,8,0
BOYM,9/17/94,58.6125,4.22815985,51.43,65.09,8,0
BOYM,9/18/94,69.53375,1.612371257,67.18,72.18,8,0
BOYM,9/19/94,72.71125,0.923725957,70.68,73.63,8,0
BOYM,9/20/94,73.385,0.772639262,72.2,74.75,8,0
BOYM,9/21/94,74.94,0.796581984,73.83,76.01,8,0
BOYM,9/22/94,77.21875,1.213583095,74.83,78.59,8,0
BOYM,9/23/94,75.81125,1.935816089,72.75,78.15,8,0
BOYM,9/24/94,76.06,1.151433889,74.2,78.02,8,0
BOYM,9/25/94,78.35375,1.111587507,75.98,79.43,8,0
BOYM,9/26/94,29.2725,6.56940691,25.81,45.37,8,0
BOYM,9/27/94,40.8775,7.229494647,26.18,50.05,8,0
BOYM,9/28/94,37.15375,4.14907197,34.7,47.24,8,0
BOYM,9/29/94,42.8,4.318051809,36.68,49.51,8,0
BOYM,9/30/94,57.16,4.160614652,51.96,63.87,8,0
BOYM,10/1/94,38.68,8.934654842,31.6,53.58,8,0
BOYM,10/2/94,38.81875,15.64301618,27.96,64.28,8,0
BOYM,10/3/94,53.05625,10.69726258,31.16,64.17,8,0
BOYM,10/4/94,72.63,4.722786708,64.79,78.67,8,0
BOYM,10/5/94,55.0625,26.86832163,27.42,82.36,8,0
BOYM,10/6/94,29.62125,1.006158714,28.44,31.19,8,0
BOYM,10/7/94,47.59375,21.04969422,25.92,76.88,8,0
BOYM,10/8/94,67.20375,16.27188192,36.69,79.53,8,0
BOYM,10/9/94,32.75875,1.569207603,30.49,35.63,8,0
BOYM,10/10/94,45.82125,10.97666413,34.61,64.05,8,0
BOYM,10/11/94,67.26125,5.534513626,57.82,77.3,8,0
BOYM,10/12/94,79.81125,4.281459823,75.57,85.73,8,0
BOYM,10/13/94,76.65125,5.088557016,68.93,82.32,8,0
BOYM,10/14/94,75.83125,7.132918532,69.01,83.52,8,0
BOYM,10/15/94,50.99,15.40706702,34.9,74.31,8,0
BOYM,10/16/94,46.1475,7.415300302,36.65,54.54,8,0
BOYM,10/17/94,56.815,9.117228589,47.91,73.84,8,0
BOYM,10/18/94,70.1725,1.986222186,66.14,72.62,8,0
BOYM,10/19/94,45.05,5.920909679,36.01,51.33,8,0
BOYM,10/20/94,38.97625,9.869476665,32.86,62.73,8,0
BOYM,10/21/94,75.17625,3.856026591,69.01,80.78,8,0
BOYM,10/22/94,69.76125,10.02638581,59.22,83.3,8,0
BOYM,10/23/94,88.08625,4.70016698,79.67,91.92,8,0
BOYM,10/24/94,90.08,7.122517613,80.15,97.99,8,0
BOYM,10/25/94,77.81375,9.602944396,66.68,88.79,8,0
BOYM,10/26/94,81.95625,4.066022758,76.15,86.19,8,0
BOYM,10/27/94,75.11125,7.538566437,64.65,83.93,8,0
BOYM,10/28/94,75.32,6.532210302,60.62,82.22,8,0
BOYM,10/29/94,64.85,16.22805683,47.7,84.88,8,0
BOYM,10/30/94,66.69125,10.79329744,52.25,82.73,8,0
BOYM,10/31/94,38.2575,3.241339009,34.81,43.58,8,0
BOYM,11/1/94,55.3125,12.18495765,33.96,69.88,8,0
BOYM,11/2/94,47.0175,20.25202829,28.28,82.73,8,0
BOYM,11/3/94,56.93125,24.23791212,32.1,83.94,8,0
BOYM,11/4/94,37.8375,3.408806871,34,43.98,8,0
BOYM,11/5/94,48.04375,18.03622144,35.14,75.64,8,0
BOYM,11/6/94,58.525,17.84855256,28.29,80.61,8,0
BOYM,11/7/94,57.325,8.343985002,50.65,75.48,8,0
BOYM,11/8/94,36.5925,6.343076653,31.81,50.66,8,0
BOYM,11/9/94,63.425,6.681909479,53.54,71.65,8,0
BOYM,11/10/94,58.6475,18.85573407,35.19,82.37,8,0
BOYM,11/11/94,55.8825,3.611168192,51.19,61.65,8,0
BOYM,11/12/94,55.49285714,2.984547682,49.66,61.89,28,0
BOYM,11/13/94,49.90361111,4.311988302,40.82,58.06,72,0
BOYM,11/14/94,59.95666667,7.689405552,48.47,77,72,0
BOYM,11/15/94,76.35541667,7.293919508,64.98,86.26,72,0
BOYM,11/16/94,63.34222222,13.68230843,48.87,85.59,72,0
BOYM,11/17/94,52.64583333,14.67228985,34,75.83,72,0
BOYM,11/18/94,60.93652778,4.542196267,48.01,69.24,72,0
BOYM,11/19/94,73.23583333,9.023292668,58.16,87.51,72,0
BOYM,11/20/94,59.6025,3.722348853,54.78,66.72,72,0
BOYM,11/21/94,61.21458333,10.1130291,46.63,82.36,72,0
BOYM,11/22/94,77.06527778,6.418315555,67.59,86.71,72,0
BOYM,11/23/94,62.28408451,13.59929332,46.44,83.27,71,0
BOYM,11/24/94,62.18666667,8.201249991,48.33,78.14,72,0
BOYM,11/25/94,50.08180556,19.96131747,24.9,81.79,72,0
BOYM,11/26/94,70.40361111,7.002447119,56.47,83.19,72,0
BOYM,11/27/94,67.92513889,10.40820952,56.3,85.16,72,0
BOYM,11/28/94,65.91027778,4.552266413,58.39,75.93,72,0
BOYM,11/29/94,62.60597222,2.979035036,58.56,72.13,72,0
BOYM,11/30/94,58.80263889,4.337680951,55.32,70.89,72,0
BOYM,12/1/94,53.65972222,2.418512505,50.46,59.6,72,0
BOYM,12/2/94,50.13458333,3.733860268,43.22,59.46,72,0
BOYM,12/3/94,49.94152778,7.627471229,37.19,66.98,72,0
BOYM,12/4/94,73.08652778,8.9453466,55.09,83.2,72,0
BOYM,12/5/94,57.47791667,8.373557969,47.06,77.74,72,0
BOYM,12/6/94,51.575,3.918733268,45.8,60.96,72,0
BOYM,12/7/94,37.86541667,6.834215686,25,49.33,72,0
BOYM,12/8/94,38.88569444,6.640404668,24.76,51.72,72,0
BOYM,12/9/94,37.19486111,6.180315638,26,49.72,72,0
BOYM,12/10/94,33.39069444,1.344804637,29.8,36.9,72,0
BOYM,12/11/94,36.3025,4.334701689,28.69,45.1,72,0
BOYM,12/12/94,29.69986111,3.428218645,24.1,37.11,72,0
BOYM,12/13/94,43.24083333,15.12102414,23.1,68.77,72,0
BOYM,12/14/94,72.55222222,6.162136136,62.25,81.2,72,0
BOYM,12/15/94,73.29847222,7.444902152,56.5,83.18,72,0
BOYM,12/16/94,77.11444444,2.463966737,72.7,80.76,72,0
BOYM,12/17/94,75.17111111,4.447860874,68.95,83.25,72,0
BOYM,12/18/94,71.75069444,3.774798316,63.96,78.58,72,0
BOYM,12/19/94,62.37833333,6.688736591,50.3,75.6,72,0
BOYM,12/20/94,59.30069444,7.148791551,46.71,72.19,72,0
BOYM,12/21/94,66.22361111,5.609781775,53.97,74.3,72,0
BOYM,12/22/94,58.13986111,10.05324774,39.04,77.48,72,0
BOYM,12/23/94,70.33666667,8.006245977,59.38,81.97,72,0
BOYM,12/24/94,59.07166667,5.253198087,50.12,68.48,72,0
BOYM,12/25/94,49.98611111,14.45739516,24.46,70.39,72,0
BOYM,12/26/94,46.20194444,9.547431723,31.1,62.63,72,0
BOYM,12/27/94,36.17597222,3.234538807,28.84,41.12,72,0
BOYM,12/28/94,43.84208333,5.781754921,33.72,60.84,72,0
BOYM,12/29/94,41.295,2.762007843,36.8,47.8,72,0
BOYM,12/30/94,43.23388889,4.727905338,31.2,51.69,72,0
BOYM,12/31/94,56.29166667,8.746199174,48.2,76.71,72,0
BOYM,1/1/95,53.80625,11.54243627,28.2,74.07,72,0
BOYM,1/2/95,57.47930556,12.41540812,48.4,86.23,72,0
BOYM,1/3/95,84.865,4.952184608,76.13,92.77,72,0
BOYM,1/4/95,66.65166667,10.25656657,55.64,82.93,72,0
BOYM,1/5/95,50.02347222,2.654163967,43.3,55.21,72,0
BOYM,1/6/95,61.09833333,5.605744036,51.45,72.58,72,0
BOYM,1/7/95,63.08958333,14.30330893,46.5,89.75,72,0
BOYM,1/8/95,37.05166667,8.226173618,25.5,54.56,72,0
BOYM,1/9/95,30.50625,6.465363717,22.6,44.89,72,0
BOYM,1/10/95,35.93083333,6.237915811,22.5,43,72,0
BOYM,1/11/95,47.87888889,8.684422764,33.4,72.73,72,0
BOYM,1/12/95,74.37361111,4.525618254,65.03,81.71,72,0
BOYM,1/13/95,72.19847222,6.133519464,59.53,83.22,72,0
BOYM,1/14/95,68.38305556,10.15458609,53.3,82.97,72,0
BOYM,1/15/95,61.00861111,7.484505178,38.6,71.03,72,0
BOYM,1/16/95,57.73805556,13.46267565,41.02,81.6,72,0
BOYM,1/17/95,44.24875,3.912145025,37.58,51.06,72,0
BOYM,1/18/95,60.86263889,5.927118862,46.32,70.32,72,0
BOYM,1/19/95,62.18541667,14.68553969,39.2,81.26,72,0
BOYM,1/20/95,67.04101449,10.15733886,52.44,82.61,69,0
BOYM,1/21/95,45.36458333,15.13593541,27.56,78.98,72,0
BOYM,1/22/95,42.42097222,6.516665993,29.61,55.69,72,0
BOYM,1/23/95,56.83722222,8.232357871,40.39,73.64,72,0
BOYM,1/24/95,64.60763889,5.243505572,53.79,73.88,72,0
BOYM,1/25/95,59.18708333,17.68168189,37.21,85.17,72,0
BOYM,1/26/95,61.36930556,4.39834006,48.2,68.87,72,0
BOYM,1/27/95,57.95611111,13.06645846,41.45,81.68,72,0
BOYM,1/28/95,66.25347222,14.06811039,44.45,84.79,72,0
BOYM,1/29/95,63.03375,12.7336193,50.24,82.88,72,0
BOYM,1/30/95,47.48944444,11.74695164,32.92,70.85,72,0
BOYM,1/31/95,52.21236111,6.633722532,32.46,65.5,72,0
BOYM,2/1/95,30.71263889,1.438045419,27.3,34.45,72,0
BOYM,2/2/95,23.32527778,0.967323842,21.5,27.78,72,0
BOYM,2/3/95,36.78277778,12.19793982,21.63,51.63,72,0
BOYM,2/4/95,44.91166667,8.70628363,26.09,56.81,72,0
BOYM,2/5/95,39.37180556,15.4742507,25.27,75.49,72,0
BOYM,2/6/95,31.45361111,2.734367762,25.88,37.51,72,0
BOYM,2/7/95,41.74208333,8.753267388,25.92,60.02,72,0
BOYM,2/8/95,55.00666667,16.48172039,36.14,83.96,72,0
BOYM,2/9/95,40.78805556,10.96421396,24.72,58.88,72,0
BOYM,2/10/95,54.91763889,2.912748807,48,61.24,72,0
BOYM,2/11/95,70.48972222,15.97921837,49.87,92.16,72,0
BOYM,2/12/95,56.87,15.95050125,36.33,81.8,72,0
BOYM,2/13/95,46.29513889,8.599519802,32.99,63.07,72,0
BOYM,2/14/95,69.55527778,10.0150806,53.6,85.81,72,0
BOYM,2/15/95,64.73583333,15.20696521,44.93,91.24,72,0
BOYM,2/16/95,68.94916667,12.2077996,52.12,84.59,72,0
BOYM,2/17/95,71.57097222,8.988383608,58.25,82.39,72,0
BOYM,2/18/95,42.58583333,13.03503532,29.72,72.98,72,0
BOYM,2/19/95,49.38763889,14.59619664,25.24,69.85,72,0
BOYM,2/20/95,38.78805556,10.28517854,26.46,70.21,72,0
BOYM,2/21/95,31.26305556,3.349173806,25.76,37.35,72,0
BOYM,2/22/95,56.14986111,22.3290492,27.78,85.78,72,0
BOYM,2/23/95,72.90152778,15.3040646,32.64,85.52,72,0
BOYM,2/24/95,83.83375,1.816198194,77.16,87.75,72,0
BOYM,2/25/95,82.09444444,5.380762784,72.08,90.91,72,0
BOYM,2/26/95,73.1725,14.64976611,47.57,95.25,72,0
BOYM,2/27/95,92.72125,2.778636781,86.74,97.86,72,0
BOYM,2/28/95,94.16638889,3.846161542,86.91,98.39,72,0
BOYM,3/1/95,68.29194444,19.31472507,42.39,95.93,72,0
BOYM,3/2/95,62.61583333,9.268511701,41.62,77.21,72,0
BOYM,3/3/95,62.68888889,11.39212893,45.87,81.12,72,0
BOYM,3/4/95,71.07472222,19.78159423,39.17,87.84,72,0